GFSGBSN_sfc_temp_159.txt.gz
Temp
62 62 62 62 62 62 62 62 61 60 60 60 60 60 60 60 60 60 59 58 58 58 58 59 59 59 58 57 60 70 68 68 67 69 66 64 60 57 53 54 57 53 56 59 60 59 57
61 61 61 61 61 61 62 62 61 60 59 59 59 59 59 59 59 59 59 58 58 57 58 58 59 59 55 51 71 70 68 67 67 66 65 64 61 62 57 55 53 59 58 59 60 60 58
60 60 61 60 60 60 60 60 60 60 59 59 59 59 59 59 59 59 59 58 57 57 57 58 59 58 53 57 67 66 68 67 66 68 63 66 66 60 58 55 60 58 54 58 59 60 61
60 60 60 60 60 59 59 59 59 59 59 59 59 58 58 58 58 58 58 57 57 57 57 58 59 53 50 69 64 67 65 67 70 69 67 69 66 60 57 59 57 51 51 47 57 57 58
59 59 60 59 59 59 59 59 59 59 59 59 58 58 57 57 57 57 57 57 57 57 58 58 53 51 51 68 65 69 69 67 68 68 67 75 64 56 56 48 45 46 41 44 51 55 54
59 59 59 59 59 59 59 59 58 59 58 58 58 58 57 56 56 55 55 56 57 56 59 61 60 49 59 62 67 68 66 69 64 63 62 59 53 47 45 44 38 40 41 47 43 51 53
59 59 59 59 58 59 59 59 59 58 59 58 58 57 57 56 55 55 55 55 53 49 51 54 55 55 61 67 69 66 68 66 62 57 49 52 45 41 46 48 49 47 45 42 45 53 48
58 58 58 58 58 59 59 60 58 57 58 59 57 57 57 56 56 55 55 52 53 51 46 57 57 57 63 65 57 62 67 59 56 49 50 47 42 50 52 51 49 47 45 42 46 51 49
57 57 57 58 58 58 59 59 58 57 57 57 57 57 56 55 54 52 52 55 57 55 46 53 57 57 59 61 56 57 64 58 52 49 48 43 49 55 52 49 48 45 43 42 44 46 46
56 56 56 57 57 57 58 58 57 57 56 56 56 56 55 53 52 50 50 57 58 58 42 47 53 57 61 62 53 67 65 60 52 49 48 46 53 53 49 48 49 42 48 48 45 41 35
55 55 56 56 56 56 56 56 57 57 57 56 55 55 53 56 50 50 55 55 56 55 30 52 54 64 62 58 57 57 62 58 50 51 49 46 47 46 46 49 52 46 49 45 43 37 33
55 55 55 56 55 55 55 55 55 56 56 56 55 55 54 52 51 54 55 56 53 39 31 47 55 52 51 55 55 55 58 61 58 51 48 48 51 49 49 49 50 50 46 41 37 35 28
54 54 54 55 55 55 55 55 55 55 55 55 54 54 53 54 50 55 56 51 38 32 50 46 48 51 49 48 51 51 51 50 45 40 40 44 46 48 52 45 47 44 39 29 27 26 27
53 53 53 54 55 55 54 54 54 54 54 54 54 53 53 53 53 53 50 42 30 42 44 53 50 49 45 49 49 49 46 45 48 46 39 38 35 45 51 48 44 41 40 29 25 24 27
51 50 50 53 54 54 54 54 54 54 54 54 53 49 49 51 51 52 45 34 33 42 50 48 50 44 43 49 48 47 43 46 50 48 42 36 39 47 49 50 51 41 36 43 33 30 26
53 52 50 49 53 53 53 54 54 54 53 53 46 46 46 51 51 48 40 36 41 51 52 52 43 46 39 43 43 45 42 49 49 52 51 46 36 44 47 50 49 45 45 32 30 25 22
51 51 50 50 51 52 52 53 53 53 53 52 44 39 45 51 50 41 33 33 44 50 52 46 45 46 45 42 45 42 43 49 53 50 53 48 40 38 45 41 39 39 35 35 35 30 25
50 50 49 50 50 51 52 52 52 53 53 49 41 33 44 48 36 35 33 39 44 46 52 48 49 49 45 45 43 44 43 48 53 50 46 46 40 32 38 45 46 41 37 34 24 25 23
50 50 50 49 50 50 51 52 52 52 52 40 35 33 43 42 32 30 39 40 45 44 46 46 46 49 48 44 39 44 44 48 50 49 44 45 37 28 32 37 40 38 39 37 32 29 26
50 49 49 50 50 50 51 51 51 51 52 42 33 30 33 35 37 35 35 36 37 46 44 48 43 48 43 41 45 40 43 46 47 47 48 50 38 36 33 34 35 34 37 37 35 25 30
49 49 49 49 50 50 50 51 51 51 51 44 36 31 34 30 31 33 37 38 36 36 46 47 43 41 40 35 39 36 40 43 45 47 44 44 36 37 36 39 39 37 37 35 34 37 30
49 49 49 49 49 50 50 50 50 51 51 41 32 33 35 30 36 34 36 35 36 39 41 40 40 44 40 34 35 33 39 38 40 43 40 41 29 33 32 36 37 34 36 37 36 35 34
49 49 49 49 49 50 50 50 50 50 50 38 38 40 37 33 31 33 34 36 37 40 43 45 42 38 38 41 44 45 45 45 42 39 36 35 33 31 29 34 34 31 33 37 37 37 35
48 49 49 48 48 49 49 49 49 50 49 41 40 37 34 28 32 34 36 37 36 39 37 44 45 40 44 49 49 47 45 44 44 40 40 35 34 32 28 31 23 35 41 42 38 37 37
48 48 49 49 49 49 49 48 48 49 49 41 42 39 35 27 34 35 35 35 38 40 39 41 42 45 47 42 33 32 31 34 38 40 40 41 33 28 26 25 31 36 39 37 36 32 35
48 48 48 48 49 48 48 48 48 49 49 41 42 44 39 32 32 37 35 36 34 36 37 40 45 46 43 34 32 28 25 30 30 33 40 37 36 31 26 22 17 31 38 43 42 24 36
48 48 49 48 48 48 48 48 48 48 48 44 42 43 40 33 35 38 35 33 38 37 34 39 40 39 42 32 30 27 26 35 27 26 24 28 28 23 24 20 25 36 41 44 28 26 35
47 48 48 48 48 48 47 47 48 48 48 44 41 44 41 35 38 42 42 38 39 41 35 39 37 37 33 31 29 27 28 31 28 31 26 24 24 18 21 14 17 40 40 33 33 33 34
47 47 47 47 48 48 48 48 48 48 48 46 38 44 46 38 37 43 44 44 42 41 39 42 37 35 34 28 29 31 28 27 28 23 31 23 25 23 26 25 34 36 36 36 36 33 33

GFSGBSN_sfc_temp_162.txt.gz
Temp
61 62 62 62 62 62 62 62 61 60 60 60 60 60 60 60 60 60 59 58 58 58 58 59 59 60 59 56 59 69 68 68 67 67 63 62 59 55 51 52 55 51 53 56 59 58 55
60 60 61 61 61 61 62 62 61 60 59 59 59 59 59 60 60 59 59 58 58 58 58 58 59 59 55 50 68 68 66 66 65 64 63 62 59 59 55 53 51 55 53 55 56 56 56
60 60 60 60 60 60 60 60 60 60 59 59 59 59 59 59 59 59 59 58 58 57 58 58 59 58 52 56 65 64 66 64 64 65 62 64 63 60 56 53 57 55 52 54 55 55 56
59 59 60 59 59 59 59 59 59 59 59 59 59 58 58 58 58 58 58 57 57 57 58 58 59 53 50 67 63 65 63 65 66 66 65 66 64 59 55 56 55 49 48 44 53 53 55
59 59 59 59 58 58 58 58 58 59 59 59 58 58 57 57 57 57 57 56 56 57 58 58 52 51 51 67 63 66 66 65 65 65 64 72 62 53 54 47 44 44 39 41 49 52 51
59 59 59 59 58 58 58 58 58 59 59 58 58 58 57 56 56 55 55 56 57 56 58 60 59 49 58 60 64 66 62 66 62 61 60 58 51 46 44 43 37 39 39 44 41 48 49
59 59 58 58 58 58 58 58 58 59 58 59 58 58 57 56 56 55 55 56 54 50 49 52 54 54 60 66 66 63 63 63 60 57 48 49 44 40 45 45 47 45 42 40 42 48 45
58 58 58 58 58 58 59 59 58 57 58 57 58 57 56 56 56 55 56 54 56 52 45 55 55 55 60 62 56 61 66 56 53 47 48 45 41 48 50 49 46 43 41 40 45 48 47
56 56 57 57 58 58 58 58 58 56 56 57 57 58 56 55 54 53 53 55 58 55 47 51 55 55 57 60 55 56 62 56 50 47 46 42 47 52 50 46 45 42 42 41 42 44 43
56 55 56 56 57 57 57 57 57 57 57 56 56 56 55 53 52 51 51 58 56 57 42 45 49 54 57 58 51 64 63 58 51 47 46 45 51 50 46 46 46 39 48 47 43 39 34
54 55 55 55 56 56 56 56 56 57 56 56 55 55 53 56 50 50 56 55 56 52 29 50 50 60 58 55 54 56 59 57 49 48 47 45 46 44 43 47 49 45 48 45 41 35 32
54 54 55 54 55 55 55 55 55 56 56 56 55 55 53 52 51 54 53 55 53 38 27 45 52 50 49 52 53 54 56 58 56 50 45 46 49 49 47 47 49 48 44 40 35 35 28
54 54 54 54 54 54 55 55 55 55 55 55 55 54 53 54 49 54 55 51 38 32 49 43 45 48 46 45 49 49 50 48 44 39 38 43 44 46 50 44 47 44 40 30 28 27 28
53 53 53 54 54 53 54 55 54 54 54 55 54 53 53 53 53 53 51 42 31 38 43 50 47 46 42 46 46 47 45 42 46 44 37 36 33 45 49 47 43 41 40 31 27 24 27
53 53 52 52 52 53 53 54 54 54 54 54 53 49 49 50 52 52 45 34 35 41 46 45 47 41 41 46 47 45 42 43 48 47 41 36 37 44 46 48 49 40 35 42 33 30 26
53 52 52 52 51 52 52 53 54 54 54 54 45 45 45 50 51 48 40 35 40 47 49 48 40 44 37 41 42 43 41 47 47 51 50 45 36 43 44 48 46 44 46 34 31 24 22
52 52 52 52 51 51 51 52 53 53 53 53 43 38 43 50 49 42 33 35 40 48 50 45 43 43 44 41 42 40 42 47 51 48 53 47 41 37 44 40 38 38 36 35 35 30 26
51 51 51 51 51 51 51 52 53 53 53 49 41 32 44 49 36 36 33 39 45 44 50 47 46 44 44 43 41 41 41 46 52 49 46 47 40 33 37 43 45 40 37 35 27 27 24
50 50 50 50 50 51 51 51 52 52 52 42 36 31 40 42 31 33 38 41 45 44 45 46 42 45 46 42 37 42 43 47 49 49 44 46 37 30 34 37 39 38 38 36 32 29 26
50 50 50 50 50 50 50 50 51 51 51 44 35 30 33 36 36 35 35 35 36 43 43 46 42 45 43 41 44 39 42 44 46 48 50 51 38 38 34 36 37 36 36 35 35 25 28
49 49 49 50 49 50 49 49 48 51 50 43 32 31 32 29 31 34 35 37 36 36 44 45 41 40 37 36 35 35 40 42 45 46 44 44 34 37 38 41 40 38 36 34 35 39 31
49 49 49 49 48 48 48 49 50 51 50 41 32 32 35 30 32 33 35 33 33 37 39 38 37 41 41 35 36 33 34 37 37 42 40 40 32 35 34 37 38 35 34 34 36 35 33
48 48 48 49 48 48 48 49 49 50 48 38 37 39 33 31 29 31 32 34 36 38 40 42 40 38 38 40 44 46 46 44 41 38 35 35 33 33 32 35 35 31 33 35 35 34 36
48 49 49 48 48 48 47 49 49 49 48 39 36 39 33 25 30 32 35 36 35 36 35 40 41 38 42 47 45 45 43 41 43 42 40 34 34 32 30 32 24 35 40 40 37 37 36
48 48 49 49 49 48 48 48 48 48 49 42 42 36 33 22 31 32 34 34 36 40 37 37 42 42 43 39 32 30 31 31 33 36 37 40 35 29 25 27 32 35 37 36 35 34 36
48 49 49 49 49 48 48 48 48 49 49 42 42 41 35 30 25 36 33 36 33 31 32 37 42 43 42 35 31 27 24 29 27 29 37 35 32 30 27 23 19 31 38 42 40 27 35
48 48 48 48 48 48 48 48 48 48 49 42 41 44 38 31 34 36 30 34 38 36 32 35 37 38 42 32 29 27 26 33 26 26 25 29 28 28 29 23 27 36 40 43 29 27 34
47 48 48 47 48 47 47 48 48 48 48 44 40 44 39 34 34 41 42 37 35 35 31 35 36 35 33 31 30 29 29 29 30 33 29 26 24 23 26 23 20 40 40 34 33 32 33
47 47 47 47 48 48 47 47 47 48 48 45 37 44 43 37 36 41 43 44 44 41 35 36 35 35 36 33 29 30 28 29 29 24 33 28 29 26 28 28 35 36 36 35 35 33 32

GFSGBSN_sfc_temp_165.txt.gz
Temp
60 60 60 62 62 62 62 62 61 60 60 60 60 60 60 61 61 60 59 59 59 59 58 59 59 60 63 61 63 73 69 71 74 74 70 69 67 66 62 63 64 63 63 66 67 66 67
59 59 59 59 60 61 62 61 61 60 60 59 59 59 59 60 60 60 59 58 58 58 58 59 59 59 61 55 73 70 70 72 73 73 71 71 68 68 64 63 62 63 63 64 66 67 67
59 59 59 59 59 59 60 59 60 60 59 59 59 59 59 59 59 59 59 58 58 57 58 59 59 59 55 59 71 69 70 71 72 72 69 72 72 69 66 62 64 63 60 62 64 65 66
59 59 59 59 58 58 58 58 59 59 59 59 59 58 58 58 58 58 58 58 57 58 58 58 59 58 53 70 70 69 70 70 71 72 71 73 73 68 66 65 62 59 58 56 61 63 64
59 59 59 58 58 58 58 58 58 58 59 59 58 58 57 57 57 57 57 57 57 58 58 58 57 57 54 69 66 71 71 69 71 72 72 73 69 61 63 58 56 55 53 52 57 62 62
59 59 59 58 58 58 58 58 58 58 59 58 58 58 57 56 56 55 55 56 57 57 59 61 60 54 60 64 69 70 69 71 68 67 66 64 60 57 55 56 48 50 50 51 53 59 60
58 59 59 58 58 58 58 58 58 57 59 59 58 59 57 56 56 55 56 55 54 54 55 56 56 55 61 68 70 69 69 68 67 63 57 57 55 51 55 54 55 54 52 51 56 58 57
57 58 58 58 58 58 58 58 57 57 57 58 57 58 57 56 56 55 57 54 57 58 50 57 57 56 61 65 59 64 70 62 59 54 56 54 49 56 55 54 53 52 50 51 55 55 56
56 56 57 57 57 58 58 58 57 57 57 57 57 57 58 56 55 54 55 56 59 58 48 53 57 58 60 62 57 60 66 60 57 52 52 50 53 53 54 51 50 51 49 49 52 53 54
55 55 56 56 56 57 57 57 57 57 57 56 56 57 55 54 53 52 52 60 60 58 43 48 51 56 58 60 53 66 68 63 55 53 51 52 56 53 51 50 52 46 53 53 51 50 47
55 54 55 55 55 55 55 55 56 56 57 56 56 55 54 56 51 51 55 57 58 55 28 52 51 64 59 57 58 57 65 62 53 51 53 51 50 49 49 51 53 51 53 51 49 47 45
55 54 54 54 54 54 54 55 55 55 56 56 56 55 54 53 52 56 56 56 55 39 29 47 53 51 50 54 56 58 59 63 60 53 52 52 56 54 54 51 54 51 49 46 45 45 39
54 54 54 54 54 54 54 54 55 55 55 55 55 55 53 55 51 54 55 50 37 31 51 46 47 50 49 48 51 52 51 51 49 44 43 48 50 55 55 49 51 51 48 40 37 37 38
53 53 53 53 53 53 53 54 54 54 54 54 54 53 53 53 54 54 51 42 30 41 44 51 50 48 45 48 49 49 48 46 52 49 44 42 40 50 53 53 48 46 49 40 31 33 38
53 53 53 53 53 53 53 53 53 54 54 54 52 50 49 51 53 52 45 33 35 38 46 47 49 45 44 48 49 48 45 46 51 51 45 40 42 50 51 52 54 45 41 49 37 36 36
53 53 53 52 52 52 52 52 53 53 53 53 46 46 47 51 51 48 38 35 38 49 50 50 41 44 40 44 45 46 44 49 50 53 55 48 40 47 49 53 51 49 51 40 39 30 30
52 52 52 52 52 51 51 51 52 53 53 52 45 39 45 51 50 41 32 34 42 48 51 44 43 43 44 43 44 42 46 50 52 51 55 49 44 41 47 45 44 43 42 40 42 38 34
51 51 51 51 51 51 51 51 52 52 52 49 42 33 45 50 35 36 33 39 45 46 50 47 47 47 45 45 43 43 43 50 54 51 47 50 42 35 41 48 50 47 43 43 35 31 33
51 51 51 51 51 51 51 51 51 52 52 44 35 33 42 45 30 31 39 40 42 43 45 45 44 48 48 45 39 44 46 49 52 51 47 48 38 32 38 42 44 42 43 43 40 37 34
50 50 50 50 51 51 51 51 51 51 52 45 35 30 33 37 37 35 34 36 35 44 44 47 45 47 43 41 45 40 42 46 47 47 48 49 39 39 34 40 42 38 40 42 43 34 40
50 50 50 50 50 51 51 50 50 50 50 42 33 31 37 29 31 34 37 38 36 36 43 45 42 42 40 36 39 39 41 40 44 44 44 42 34 39 42 42 43 41 43 40 40 44 37
50 49 49 49 49 50 50 50 50 50 49 41 31 32 33 33 37 34 34 33 35 39 40 38 36 41 42 36 36 33 34 35 35 40 35 38 31 33 32 39 41 38 41 42 42 44 43
49 49 49 49 49 49 49 49 48 49 47 36 35 39 37 33 32 32 33 34 34 37 42 45 42 39 39 42 46 47 46 44 41 38 34 33 34 34 29 38 37 31 41 39 40 43 42
49 48 48 48 49 49 48 48 46 46 46 38 37 38 33 29 31 32 35 37 36 37 35 40 43 40 44 50 48 46 42 41 42 40 41 33 34 32 28 33 22 39 45 46 42 44 43
48 48 48 49 48 49 49 48 47 46 48 41 41 37 34 28 33 34 34 35 37 39 38 39 42 46 47 44 37 33 33 33 35 40 40 39 37 31 27 27 35 39 40 40 39 41 44
48 48 48 48 48 48 48 48 46 48 48 43 42 41 36 31 30 35 35 36 34 35 35 39 45 46 44 37 34 28 27 32 30 31 36 37 34 33 28 25 23 38 42 46 47 35 42
47 48 49 49 48 48 48 48 48 48 48 43 41 44 38 31 35 35 32 34 39 36 34 36 39 39 42 33 29 29 30 36 30 26 25 28 29 29 28 27 32 41 44 47 33 35 39
47 48 48 48 48 48 48 48 48 48 48 42 40 43 39 34 36 40 40 36 35 35 31 36 37 37 35 30 31 31 31 33 32 35 29 28 26 26 28 26 24 44 42 38 41 37 39
46 47 48 48 48 48 48 47 47 48 48 46 38 43 44 37 36 43 44 46 45 44 37 37 33 35 38 33 34 34 31 32 32 28 36 29 33 30 32 33 39 41 42 40 41 39 37

GFSGBSN_sfc_temp_168.txt.gz
Temp
59 59 60 60 61 61 62 62 62 61 60 60 60 61 61 61 61 61 60 59 59 59 59 59 60 60 72 72 75 81 71 75 83 83 79 77 76 75 73 74 74 73 74 75 76 76 77
58 58 58 58 59 60 61 61 60 60 59 59 59 59 60 60 60 60 59 59 59 58 59 59 60 58 70 65 81 81 81 82 83 82 79 79 76 77 74 72 72 72 73 75 77 77 77
59 59 58 58 58 58 58 58 59 59 59 59 59 58 59 60 59 59 59 59 58 58 59 59 60 67 65 69 82 83 80 80 82 81 77 79 80 76 75 70 73 72 68 73 74 77 75
59 59 59 59 58 58 58 58 58 58 59 59 59 59 58 58 58 58 58 58 58 58 59 59 59 67 65 79 83 79 83 80 81 81 79 81 80 76 73 74 71 68 68 66 72 74 74
59 59 59 59 58 58 58 58 58 59 59 59 58 58 57 57 56 56 57 57 57 58 59 59 64 66 65 75 74 79 80 75 78 79 79 79 78 72 71 67 65 68 63 64 66 73 72
59 59 59 59 58 58 58 58 58 58 58 59 59 58 58 57 56 55 55 57 58 58 63 67 68 61 70 70 76 78 79 77 74 74 72 72 71 67 68 66 58 63 61 64 64 68 69
59 59 59 58 58 59 58 58 58 57 58 59 59 58 59 57 56 55 56 57 57 61 62 66 67 66 69 76 78 77 79 76 76 71 63 67 62 59 66 68 68 64 63 63 67 68 66
57 57 58 58 58 58 58 59 58 57 57 57 58 58 58 57 56 56 57 54 58 62 56 69 67 67 70 73 66 73 78 69 67 62 66 61 58 67 67 65 63 63 61 62 65 65 64
56 56 56 57 57 57 58 58 57 57 57 57 57 57 57 56 55 56 56 58 66 65 50 60 67 67 70 69 65 69 73 70 65 61 61 60 63 63 63 61 59 61 59 61 61 63 64
55 55 55 56 56 56 56 57 57 57 56 57 57 56 56 54 55 58 56 64 66 65 50 58 59 65 68 68 61 75 78 71 66 61 64 62 68 61 60 60 62 57 64 62 61 59 56
55 55 55 55 55 55 55 55 56 56 56 56 56 56 54 55 59 55 62 66 65 63 34 60 60 71 67 62 64 64 77 70 62 61 61 59 59 58 58 61 63 59 62 61 60 58 57
55 54 55 54 54 54 54 54 54 55 55 56 56 56 54 58 60 63 64 64 61 43 32 54 60 57 56 60 62 64 64 71 70 64 62 63 65 64 63 65 63 61 59 58 58 57 47
54 54 54 54 54 54 54 54 54 54 55 55 55 55 55 62 55 63 62 52 39 34 56 53 54 57 57 56 57 60 58 57 57 49 51 58 58 63 63 57 61 61 56 48 45 45 46
53 53 54 53 54 54 54 54 54 54 54 54 54 53 55 58 61 59 55 43 30 44 50 58 56 56 52 57 56 57 56 54 60 60 57 51 48 58 63 61 56 57 57 50 39 44 49
53 53 53 53 53 53 53 53 53 53 54 54 54 55 53 56 57 56 46 33 36 46 53 54 54 48 52 55 55 55 54 55 59 60 51 51 52 60 60 64 63 54 50 60 49 45 43
53 53 53 53 53 52 52 52 52 53 53 53 51 50 52 58 57 50 39 34 43 53 56 55 46 52 47 52 50 53 54 59 56 61 62 55 47 55 57 59 60 58 62 46 48 36 36
52 52 52 52 52 52 52 52 52 52 53 53 48 40 54 58 54 42 32 34 46 55 55 49 48 45 49 50 51 50 53 57 60 59 61 57 50 47 52 51 54 51 50 52 53 50 42
52 52 52 52 52 52 52 52 52 52 52 50 45 33 48 55 37 37 34 42 46 49 56 50 51 49 49 51 49 46 47 55 60 59 52 56 48 43 48 55 55 57 53 52 42 39 41
51 51 51 51 51 51 51 51 51 51 51 50 38 37 51 43 32 32 42 43 45 46 47 49 46 51 52 47 42 49 52 58 58 57 54 54 45 38 42 49 50 46 51 53 51 45 41
51 51 51 51 51 51 51 51 51 51 51 48 36 32 36 40 34 39 39 40 40 49 45 45 47 52 48 45 50 46 50 52 51 51 47 53 48 45 40 47 49 42 46 48 47 39 43
51 51 50 51 51 51 51 51 51 51 50 46 34 34 45 33 34 34 43 43 40 40 49 48 40 44 43 40 45 45 49 49 48 44 47 45 37 45 47 50 50 43 46 48 44 48 38
51 50 50 50 50 50 50 51 51 50 50 43 33 34 37 43 46 35 35 35 41 45 46 44 39 43 46 38 40 37 43 39 37 40 37 39 33 38 35 44 45 41 44 48 49 49 49
50 50 50 50 50 50 50 50 50 50 49 41 40 38 41 40 39 38 37 40 41 46 48 50 48 43 42 48 51 52 51 49 44 40 37 35 35 33 31 43 41 32 39 46 49 52 49
50 50 50 50 50 50 49 49 49 49 49 42 40 41 34 32 38 37 40 43 41 44 41 48 48 41 49 56 55 53 50 47 45 40 42 36 36 35 32 36 24 45 55 52 49 52 53
49 49 49 49 49 49 49 49 48 48 48 39 40 37 34 32 37 39 37 38 40 44 42 42 45 48 48 44 38 35 37 38 39 44 40 39 36 33 30 30 40 45 49 46 45 47 56
49 49 49 48 48 48 48 48 48 47 47 42 40 42 35 32 33 41 39 40 35 39 42 44 51 53 49 38 35 30 31 38 38 35 44 39 41 35 32 28 27 47 53 55 54 39 56
48 49 48 48 48 48 48 48 48 48 47 43 41 44 38 32 40 41 36 37 44 43 42 45 47 45 46 34 31 31 34 44 35 32 29 31 31 29 31 30 38 53 51 56 38 42 54
48 48 47 48 48 49 49 48 48 48 47 44 42 46 40 36 40 44 45 40 38 42 39 40 39 42 39 32 33 36 36 41 39 44 34 32 29 29 31 29 29 55 50 43 49 49 50
48 47 47 47 48 48 48 48 48 48 48 48 42 48 48 39 40 48 50 52 50 49 45 43 37 34 38 38 40 42 36 35 41 34 47 32 38 38 40 41 46 54 50 50 52 50 49

GFSGBSN_sfc_temp_171.txt.gz
Temp
58 59 59 60 60 61 62 62 62 61 61 61 61 61 62 62 62 61 60 60 60 60 60 60 60 60 71 77 80 87 73 75 88 88 85 83 80 80 76 81 81 78 81 82 83 82 83
57 57 57 58 58 59 60 60 60 59 59 59 59 60 60 61 61 61 60 60 59 59 59 60 60 58 75 68 89 89 87 87 88 87 85 85 81 83 78 78 77 80 80 81 83 82 82
58 57 56 56 56 57 57 57 58 59 59 59 59 58 59 59 60 60 60 60 59 59 59 60 60 70 70 72 90 91 88 86 87 86 82 85 85 80 81 76 82 79 73 78 80 82 80
60 60 59 58 56 56 56 57 57 58 58 58 59 58 58 58 58 58 58 58 58 59 59 60 60 69 67 88 90 86 89 86 87 88 85 85 85 80 78 81 77 73 74 68 80 80 81
59 60 60 59 59 58 58 58 58 58 59 58 58 57 57 57 56 56 56 56 58 58 59 60 67 70 68 76 80 86 86 81 83 84 84 83 81 76 77 69 68 72 65 69 72 81 79
59 60 60 59 59 58 58 58 58 58 58 59 59 58 58 57 56 55 55 56 60 60 65 74 74 63 73 73 82 83 87 83 79 78 75 74 74 69 71 68 58 65 67 70 71 75 76
59 59 59 59 58 59 59 59 58 58 58 58 59 58 58 58 57 56 60 62 59 61 68 68 70 71 75 81 83 81 84 80 79 75 67 72 65 62 69 71 72 71 68 68 75 77 72
57 57 58 58 58 58 58 59 58 57 57 58 58 58 58 58 57 56 63 61 64 64 58 72 73 73 78 81 69 78 83 72 72 65 72 68 61 71 74 73 69 69 65 66 74 75 68
56 56 56 57 57 57 58 58 57 57 57 57 57 58 58 58 56 59 63 65 74 72 58 65 72 72 74 78 69 72 80 74 69 66 68 64 68 70 69 67 63 66 64 66 67 72 71
56 55 55 56 56 56 56 56 56 56 56 56 57 57 56 55 55 71 65 74 73 70 53 60 68 72 75 76 68 80 81 76 70 64 68 67 73 69 65 64 67 60 71 68 67 65 58
56 55 55 55 55 55 55 55 55 55 56 56 56 56 55 54 65 65 68 74 73 67 35 65 69 78 74 67 70 72 81 76 66 67 67 65 65 65 63 65 69 63 68 66 66 63 63
55 55 55 55 54 54 54 54 54 55 55 55 55 56 54 59 64 67 71 70 64 47 35 58 66 63 62 65 67 72 69 77 77 67 70 67 75 70 69 70 70 69 64 64 64 62 51
55 55 55 54 54 54 54 54 54 54 54 55 55 55 55 63 59 69 65 58 41 35 60 57 59 63 62 62 62 65 63 62 60 53 55 63 64 69 69 63 68 65 59 50 47 49 48
54 54 54 54 54 54 54 54 54 54 54 54 54 54 57 62 64 63 58 44 30 47 52 66 61 61 56 63 63 63 60 59 63 64 61 55 52 64 68 63 61 61 60 51 43 47 53
54 53 53 53 53 53 53 53 53 53 53 54 54 58 56 62 62 58 46 33 38 48 57 57 59 53 56 59 62 61 59 59 65 64 55 54 58 69 69 67 67 61 54 64 52 55 48
54 53 53 53 53 53 53 53 52 53 53 53 53 54 56 63 60 53 39 34 44 55 58 58 46 54 50 53 53 55 58 64 62 68 67 58 49 61 65 65 67 63 67 50 52 38 39
53 53 53 53 53 52 52 52 52 52 53 53 50 42 58 63 57 44 33 36 48 56 58 52 50 48 50 49 53 50 49 60 64 63 65 60 52 50 57 55 56 56 53 56 57 52 43
52 52 52 52 52 52 52 52 52 52 52 51 47 34 57 56 38 38 34 45 50 53 58 54 53 51 50 51 50 47 45 55 60 60 55 60 52 45 49 61 62 57 57 54 42 43 49
51 52 51 52 52 51 51 51 52 52 51 52 40 38 55 49 32 33 44 46 50 51 51 51 49 51 54 51 44 45 49 55 59 53 53 54 42 35 45 54 56 51 56 56 53 49 41
51 51 51 51 51 51 51 51 51 51 51 49 38 33 39 41 39 34 38 43 44 53 51 53 50 49 47 46 51 47 51 57 56 54 47 49 43 39 40 50 53 44 52 55 52 42 45
51 51 51 51 51 51 51 51 51 51 51 50 38 35 48 33 35 40 42 41 40 43 52 53 46 43 43 41 45 44 49 53 51 46 48 47 35 44 49 54 54 54 51 52 50 51 43
51 51 51 50 51 51 51 51 51 51 50 44 34 36 44 45 47 45 40 38 38 42 43 46 44 48 47 41 42 39 47 48 47 46 45 43 35 36 34 45 47 45 51 54 52 53 53
51 51 51 50 50 50 50 50 50 50 50 45 47 49 40 40 43 41 42 43 42 39 43 48 49 47 47 50 54 51 48 49 46 41 38 37 36 33 31 43 43 33 41 48 51 54 53
50 50 51 50 50 50 50 50 50 49 50 50 49 47 35 32 40 42 45 48 46 47 40 46 51 47 54 59 57 53 49 48 43 42 47 37 38 36 32 38 26 47 59 58 52 54 56
49 49 50 50 50 50 49 49 49 49 49 48 47 42 38 32 42 42 44 43 48 49 47 47 51 56 58 51 42 37 38 40 41 46 43 43 39 34 30 32 39 44 52 52 50 50 59
49 49 49 50 49 49 49 49 49 48 48 46 43 46 39 32 35 44 38 45 38 42 43 47 55 55 52 43 37 30 30 38 37 43 53 47 42 37 36 29 26 46 57 60 56 41 59
48 48 49 49 49 49 49 48 48 48 48 46 40 43 38 32 42 40 33 37 45 45 40 46 47 45 50 35 31 32 34 44 35 35 33 35 32 29 34 31 39 54 59 60 38 44 60
48 48 48 49 49 48 49 49 48 48 48 44 40 43 37 36 41 42 42 38 43 44 39 47 43 44 39 32 32 35 33 39 38 45 40 34 32 33 34 29 28 58 58 45 52 57 57
47 47 48 48 47 47 48 49 48 48 48 47 38 44 44 35 42 46 47 51 52 52 44 44 40 43 40 36 39 39 34 39 41 35 51 37 39 38 41 41 55 59 57 60 56 54 54